Year,Month,Day,Hour,Minute,Value (Times are PST for temperature in C)
2018,07,23,00,00,20.20
2018,07,23,00,01,20.20
2018,07,23,00,02,20.10
2018,07,23,00,03,20.10
2018,07,23,00,04,20.00
2018,07,23,00,05,19.90
2018,07,23,00,06,19.90
2018,07,23,00,07,19.80
2018,07,23,00,08,19.80
2018,07,23,00,09,19.80
2018,07,23,00,10,19.70
2018,07,23,00,11,19.70
2018,07,23,00,12,19.60
2018,07,23,00,13,19.60
2018,07,23,00,14,19.50
2018,07,23,00,15,19.50
2018,07,23,00,16,19.40
2018,07,23,00,17,19.40
2018,07,23,00,18,19.30
2018,07,23,00,19,19.30
2018,07,23,00,20,19.30
2018,07,23,00,21,19.20
2018,07,23,00,22,19.20
2018,07,23,00,23,19.20
2018,07,23,00,24,19.10
2018,07,23,00,25,19.10
2018,07,23,00,26,19.00
2018,07,23,00,27,19.00
2018,07,23,00,28,19.00
2018,07,23,00,29,18.90
2018,07,23,00,30,18.90
2018,07,23,00,31,18.90
2018,07,23,00,32,18.80
2018,07,23,00,33,18.80
2018,07,23,00,34,18.80
2018,07,23,00,35,18.70
2018,07,23,00,36,18.70
2018,07,23,00,37,18.70
2018,07,23,00,38,18.70
2018,07,23,00,39,18.70
2018,07,23,00,40,18.60
2018,07,23,00,41,18.60
2018,07,23,00,42,18.60
2018,07,23,00,43,18.60
2018,07,23,00,44,18.60
2018,07,23,00,45,18.50
2018,07,23,00,46,18.50
2018,07,23,00,47,18.50
2018,07,23,00,48,18.50
2018,07,23,00,49,18.50
2018,07,23,00,50,18.40
2018,07,23,00,51,18.40
2018,07,23,00,52,18.40
2018,07,23,00,53,18.40
2018,07,23,00,54,18.40
2018,07,23,00,55,18.40
2018,07,23,00,56,18.40
2018,07,23,00,57,18.40
2018,07,23,00,58,18.40
2018,07,23,00,59,18.40
2018,07,23,01,00,18.40
2018,07,23,01,01,18.40
2018,07,23,01,02,18.40
2018,07,23,01,03,18.40
2018,07,23,01,04,18.40
2018,07,23,01,05,18.40
2018,07,23,01,06,18.30
2018,07,23,01,07,18.30
2018,07,23,01,08,18.30
2018,07,23,01,09,18.30
2018,07,23,01,10,18.30
2018,07,23,01,11,18.20
2018,07,23,01,12,18.20
2018,07,23,01,13,18.20
2018,07,23,01,14,18.20
2018,07,23,01,15,18.10
2018,07,23,01,16,18.10
2018,07,23,01,17,18.10
2018,07,23,01,18,18.10
2018,07,23,01,19,18.10
2018,07,23,01,20,18.10
2018,07,23,01,21,18.10
2018,07,23,01,22,18.10
2018,07,23,01,23,18.10
2018,07,23,01,24,18.10
2018,07,23,01,25,18.10
2018,07,23,01,26,18.00
2018,07,23,01,27,18.00
2018,07,23,01,28,18.00
2018,07,23,01,29,18.00
2018,07,23,01,30,18.00
2018,07,23,01,31,18.00
2018,07,23,01,32,18.00
2018,07,23,01,33,17.90
2018,07,23,01,34,17.90
2018,07,23,01,35,17.90
2018,07,23,01,36,17.90
2018,07,23,01,37,18.00
2018,07,23,01,38,18.00
2018,07,23,01,39,18.00
2018,07,23,01,40,18.00
2018,07,23,01,41,17.90
2018,07,23,01,42,17.90
2018,07,23,01,43,17.90
2018,07,23,01,44,17.90
2018,07,23,01,45,17.80
2018,07,23,01,46,17.80
2018,07,23,01,47,17.80
2018,07,23,01,48,17.70
2018,07,23,01,49,17.70
2018,07,23,01,50,17.70
2018,07,23,01,51,17.70
2018,07,23,01,52,17.70
2018,07,23,01,53,17.60
2018,07,23,01,54,17.60
2018,07,23,01,55,17.60
2018,07,23,01,56,17.60
2018,07,23,01,57,17.60
2018,07,23,01,58,17.60
2018,07,23,01,59,17.50
2018,07,23,02,00,17.50
2018,07,23,02,01,17.50
2018,07,23,02,02,17.40
2018,07,23,02,03,17.40
2018,07,23,02,04,17.40
2018,07,23,02,05,17.30
2018,07,23,02,06,17.30
2018,07,23,02,07,17.30
2018,07,23,02,08,17.30
2018,07,23,02,09,17.20
2018,07,23,02,10,17.20
2018,07,23,02,11,17.10
2018,07,23,02,12,17.10
2018,07,23,02,13,17.10
2018,07,23,02,14,17.00
2018,07,23,02,15,17.00
2018,07,23,02,16,16.90
2018,07,23,02,17,16.90
2018,07,23,02,18,16.90
2018,07,23,02,19,16.80
2018,07,23,02,20,16.80
2018,07,23,02,21,16.80
2018,07,23,02,22,16.70
2018,07,23,02,23,16.70
2018,07,23,02,24,16.70
2018,07,23,02,25,16.60
2018,07,23,02,26,16.60
2018,07,23,02,27,16.50
2018,07,23,02,28,16.50
2018,07,23,02,29,16.40
2018,07,23,02,30,16.40
2018,07,23,02,31,16.40
2018,07,23,02,32,16.30
2018,07,23,02,33,16.30
2018,07,23,02,34,16.30
2018,07,23,02,35,16.30
2018,07,23,02,36,16.20
2018,07,23,02,37,16.20
2018,07,23,02,38,16.20
2018,07,23,02,39,16.10
2018,07,23,02,40,16.10
2018,07,23,02,41,16.10
2018,07,23,02,42,16.00
2018,07,23,02,43,16.00
2018,07,23,02,44,15.90
2018,07,23,02,45,15.90
2018,07,23,02,46,15.80
2018,07,23,02,47,15.80
2018,07,23,02,48,15.80
2018,07,23,02,49,15.70
2018,07,23,02,50,15.70
2018,07,23,02,51,15.70
2018,07,23,02,52,15.70
2018,07,23,02,53,15.70
2018,07,23,02,54,15.60
2018,07,23,02,55,15.60
2018,07,23,02,56,15.60
2018,07,23,02,57,15.50
2018,07,23,02,58,15.50
2018,07,23,02,59,15.40
2018,07,23,03,00,15.40
2018,07,23,03,01,15.40
2018,07,23,03,02,15.40
2018,07,23,03,03,15.30
2018,07,23,03,04,15.30
2018,07,23,03,05,15.30
2018,07,23,03,06,15.30
2018,07,23,03,07,15.20
2018,07,23,03,08,15.20
2018,07,23,03,09,15.20
2018,07,23,03,10,15.20
2018,07,23,03,11,15.20
2018,07,23,03,12,15.10
2018,07,23,03,13,15.10
2018,07,23,03,14,15.10
2018,07,23,03,15,15.10
2018,07,23,03,16,15.00
2018,07,23,03,17,15.00
2018,07,23,03,18,15.00
2018,07,23,03,19,14.90
2018,07,23,03,20,14.90
2018,07,23,03,21,14.90
2018,07,23,03,22,14.90
2018,07,23,03,23,14.90
2018,07,23,03,24,14.90
2018,07,23,03,25,14.80
2018,07,23,03,26,14.80
2018,07,23,03,27,14.80
2018,07,23,03,28,14.80
2018,07,23,03,29,14.80
2018,07,23,03,30,14.80
2018,07,23,03,31,14.80
2018,07,23,03,32,14.70
2018,07,23,03,33,14.70
2018,07,23,03,34,14.70
2018,07,23,03,35,14.70
2018,07,23,03,36,14.60
2018,07,23,03,37,14.60
2018,07,23,03,38,14.60
2018,07,23,03,39,14.60
2018,07,23,03,40,14.60
2018,07,23,03,41,14.50
2018,07,23,03,42,14.50
2018,07,23,03,43,14.50
2018,07,23,03,44,14.40
2018,07,23,03,45,14.40
2018,07,23,03,46,14.40
2018,07,23,03,47,14.40
2018,07,23,03,48,14.40
2018,07,23,03,49,14.40
2018,07,23,03,50,14.30
2018,07,23,03,51,14.30
2018,07,23,03,52,14.30
2018,07,23,03,53,14.30
2018,07,23,03,54,14.20
2018,07,23,03,55,14.20
2018,07,23,03,56,14.20
2018,07,23,03,57,14.20
2018,07,23,03,58,14.10
2018,07,23,03,59,14.10
2018,07,23,04,00,14.10
2018,07,23,04,01,14.10
2018,07,23,04,02,14.00
2018,07,23,04,03,14.00
2018,07,23,04,04,14.00
2018,07,23,04,05,13.90
2018,07,23,04,06,13.90
2018,07,23,04,07,13.80
2018,07,23,04,08,13.80
2018,07,23,04,09,13.80
2018,07,23,04,10,13.80
2018,07,23,04,11,13.70
2018,07,23,04,12,13.70
2018,07,23,04,13,13.70
2018,07,23,04,14,13.60
2018,07,23,04,15,13.60
2018,07,23,04,16,13.60
2018,07,23,04,17,13.60
2018,07,23,04,18,13.60
2018,07,23,04,19,13.60
2018,07,23,04,20,13.50
2018,07,23,04,21,13.50
2018,07,23,04,22,13.50
2018,07,23,04,23,13.40
2018,07,23,04,24,13.40
2018,07,23,04,25,13.40
2018,07,23,04,26,13.40
2018,07,23,04,27,13.40
2018,07,23,04,28,13.40
2018,07,23,04,29,13.30
2018,07,23,04,30,13.30
2018,07,23,04,31,13.30
2018,07,23,04,32,13.30
2018,07,23,04,33,13.30
2018,07,23,04,34,13.20
2018,07,23,04,35,13.20
2018,07,23,04,36,13.20
2018,07,23,04,37,13.20
2018,07,23,04,38,13.20
2018,07,23,04,39,13.10
2018,07,23,04,40,13.10
2018,07,23,04,41,13.10
2018,07,23,04,42,13.10
2018,07,23,04,43,13.10
2018,07,23,04,44,13.10
2018,07,23,04,45,13.00
2018,07,23,04,46,13.00
2018,07,23,04,47,13.00
2018,07,23,04,48,13.00
2018,07,23,04,49,12.90
2018,07,23,04,50,12.90
2018,07,23,04,51,12.90
2018,07,23,04,52,12.90
2018,07,23,04,53,12.90
2018,07,23,04,54,12.90
2018,07,23,04,55,12.80
2018,07,23,04,56,12.80
2018,07,23,04,57,12.80
2018,07,23,04,58,12.80
2018,07,23,04,59,12.80
2018,07,23,05,00,12.80
2018,07,23,05,01,12.80
2018,07,23,05,02,12.80
2018,07,23,05,03,12.80
2018,07,23,05,04,12.70
2018,07,23,05,05,12.70
2018,07,23,05,06,12.70
2018,07,23,05,07,12.70
2018,07,23,05,08,12.70
2018,07,23,05,09,12.70
2018,07,23,05,10,12.70
2018,07,23,05,11,12.60
2018,07,23,05,12,12.60
2018,07,23,05,13,12.60
2018,07,23,05,14,12.60
2018,07,23,05,15,12.60
2018,07,23,05,16,12.60
2018,07,23,05,17,12.50
2018,07,23,05,18,12.50
2018,07,23,05,19,12.50
2018,07,23,05,20,12.50
2018,07,23,05,21,12.40
2018,07,23,05,22,12.40
2018,07,23,05,23,12.40
2018,07,23,05,24,12.40
2018,07,23,05,25,12.40
2018,07,23,05,26,12.30
2018,07,23,05,27,12.30
2018,07,23,05,28,12.30
2018,07,23,05,29,12.30
2018,07,23,05,30,12.30
2018,07,23,05,31,12.30
2018,07,23,05,32,12.30
2018,07,23,05,33,12.30
2018,07,23,05,34,12.30
2018,07,23,05,35,12.20
2018,07,23,05,36,12.20
2018,07,23,05,37,12.20
2018,07,23,05,38,12.20
2018,07,23,05,39,12.20
2018,07,23,05,40,12.20
2018,07,23,05,41,12.20
2018,07,23,05,42,12.20
2018,07,23,05,43,12.10
2018,07,23,05,44,12.10
2018,07,23,05,45,12.10
2018,07,23,05,46,12.10
2018,07,23,05,47,12.10
2018,07,23,05,48,12.10
2018,07,23,05,49,12.10
2018,07,23,05,50,12.10
2018,07,23,05,51,12.10
2018,07,23,05,52,12.10
2018,07,23,05,53,12.10
2018,07,23,05,54,12.10
2018,07,23,05,55,12.00
2018,07,23,05,56,12.00
2018,07,23,05,57,12.00
2018,07,23,05,58,12.00
2018,07,23,05,59,12.00
2018,07,23,06,00,12.00
2018,07,23,06,01,12.00
2018,07,23,06,02,12.00
2018,07,23,06,03,12.00
2018,07,23,06,04,12.00
2018,07,23,06,05,11.90
2018,07,23,06,06,11.90
2018,07,23,06,07,12.00
2018,07,23,06,08,11.90
2018,07,23,06,09,11.90
2018,07,23,06,10,11.90
2018,07,23,06,11,11.90
2018,07,23,06,12,11.90
2018,07,23,06,13,11.90
2018,07,23,06,14,11.90
2018,07,23,06,15,11.90
2018,07,23,06,16,11.90
2018,07,23,06,17,11.90
2018,07,23,06,18,11.90
2018,07,23,06,19,11.90
2018,07,23,06,20,11.90
2018,07,23,06,21,11.90
2018,07,23,06,22,11.90
2018,07,23,06,23,11.90
2018,07,23,06,24,11.90
2018,07,23,06,25,11.90
2018,07,23,06,26,11.90
2018,07,23,06,27,11.90
2018,07,23,06,28,11.90
2018,07,23,06,29,11.90
2018,07,23,06,30,11.90
2018,07,23,06,31,11.90
2018,07,23,06,32,11.90
2018,07,23,06,33,11.90
2018,07,23,06,34,11.90
2018,07,23,06,35,11.90
2018,07,23,06,36,11.90
2018,07,23,06,37,11.90
2018,07,23,06,38,11.90
2018,07,23,06,39,11.90
2018,07,23,06,40,11.90
2018,07,23,06,41,11.90
2018,07,23,06,42,11.90
2018,07,23,06,43,11.90
2018,07,23,06,44,11.90
2018,07,23,06,45,11.90
2018,07,23,06,46,11.90
2018,07,23,06,47,11.90
2018,07,23,06,48,11.90
2018,07,23,06,49,11.90
2018,07,23,06,50,11.90
2018,07,23,06,51,11.90
2018,07,23,06,52,11.90
2018,07,23,06,53,11.90
2018,07,23,06,54,11.90
2018,07,23,06,55,11.90
2018,07,23,06,56,11.90
2018,07,23,06,57,11.90
2018,07,23,06,58,11.90
2018,07,23,06,59,11.90
2018,07,23,07,00,11.90
2018,07,23,07,01,11.90
2018,07,23,07,02,11.90
2018,07,23,07,03,11.90
2018,07,23,07,04,11.90
2018,07,23,07,05,11.90
2018,07,23,07,06,11.90
2018,07,23,07,07,11.90
2018,07,23,07,08,11.90
2018,07,23,07,09,11.90
2018,07,23,07,10,11.90
2018,07,23,07,11,11.90
2018,07,23,07,12,11.90
2018,07,23,07,13,11.90
2018,07,23,07,14,11.90
2018,07,23,07,15,11.90
2018,07,23,07,16,11.90
2018,07,23,07,17,11.90
2018,07,23,07,18,11.90
2018,07,23,07,19,11.90
2018,07,23,07,20,11.90
2018,07,23,07,21,11.90
2018,07,23,07,22,11.90
2018,07,23,07,23,11.90
2018,07,23,07,24,11.90
2018,07,23,07,25,11.90
2018,07,23,07,26,11.90
2018,07,23,07,27,11.90
2018,07,23,07,28,11.90
2018,07,23,07,29,11.90
2018,07,23,07,30,11.90
2018,07,23,07,31,12.00
2018,07,23,07,32,12.00
2018,07,23,07,33,12.00
2018,07,23,07,34,12.00
2018,07,23,07,35,12.00
2018,07,23,07,36,12.00
2018,07,23,07,37,12.00
2018,07,23,07,38,12.10
2018,07,23,07,39,12.10
2018,07,23,07,40,12.10
2018,07,23,07,41,12.10
2018,07,23,07,42,12.10
2018,07,23,07,43,12.10
2018,07,23,07,44,12.10
2018,07,23,07,45,12.10
2018,07,23,07,46,12.10
2018,07,23,07,47,12.10
2018,07,23,07,48,12.10
2018,07,23,07,49,12.10
2018,07,23,07,50,12.10
2018,07,23,07,51,12.10
2018,07,23,07,52,12.10
2018,07,23,07,53,12.10
2018,07,23,07,54,12.10
2018,07,23,07,55,12.10
2018,07,23,07,56,12.10
2018,07,23,07,57,12.10
2018,07,23,07,58,12.10
2018,07,23,07,59,12.10
2018,07,23,08,00,12.10
2018,07,23,08,01,12.10
2018,07,23,08,02,12.10
2018,07,23,08,03,12.10
2018,07,23,08,04,12.20
2018,07,23,08,05,12.10
2018,07,23,08,06,12.20
2018,07,23,08,07,12.20
2018,07,23,08,08,12.20
2018,07,23,08,09,12.30
2018,07,23,08,10,12.30
2018,07,23,08,11,12.30
2018,07,23,08,12,12.40
2018,07,23,08,13,12.40
2018,07,23,08,14,12.50
2018,07,23,08,15,12.60
2018,07,23,08,16,12.70
2018,07,23,08,17,12.80
2018,07,23,08,18,12.90
2018,07,23,08,19,12.90
2018,07,23,08,20,13.00
2018,07,23,08,21,13.10
2018,07,23,08,22,13.10
2018,07,23,08,23,13.20
2018,07,23,08,24,13.30
2018,07,23,08,25,13.30
2018,07,23,08,26,13.40
2018,07,23,08,27,13.40
2018,07,23,08,28,13.50
2018,07,23,08,29,13.60
2018,07,23,08,30,13.70
2018,07,23,08,31,13.80
2018,07,23,08,32,13.90
2018,07,23,08,33,14.00
2018,07,23,08,34,14.10
2018,07,23,08,35,14.10
2018,07,23,08,36,14.20
2018,07,23,08,37,14.30
2018,07,23,08,38,14.30
2018,07,23,08,39,14.40
2018,07,23,08,40,14.40
2018,07,23,08,41,14.50
2018,07,23,08,42,14.50
2018,07,23,08,43,14.60
2018,07,23,08,44,14.60
2018,07,23,08,45,14.70
2018,07,23,08,46,14.80
2018,07,23,08,47,14.90
2018,07,23,08,48,14.90
2018,07,23,08,49,15.00
2018,07,23,08,50,15.10
2018,07,23,08,51,15.20
2018,07,23,08,52,15.20
2018,07,23,08,53,15.20
2018,07,23,08,54,15.20
2018,07,23,08,55,15.30
2018,07,23,08,56,15.30
2018,07,23,08,57,15.40
2018,07,23,08,58,15.40
2018,07,23,08,59,15.40
2018,07,23,09,00,15.50
2018,07,23,09,01,15.50
2018,07,23,09,02,15.60
2018,07,23,09,03,15.70
2018,07,23,09,04,15.70
2018,07,23,09,05,15.80
2018,07,23,09,06,15.90
2018,07,23,09,07,15.90
2018,07,23,09,08,16.00
2018,07,23,09,09,16.10
2018,07,23,09,10,16.10
2018,07,23,09,11,16.20
2018,07,23,09,12,16.20
2018,07,23,09,13,16.30
2018,07,23,09,14,16.30
2018,07,23,09,15,16.30
2018,07,23,09,16,16.30
2018,07,23,09,17,16.30
2018,07,23,09,18,16.40
2018,07,23,09,19,16.40
2018,07,23,09,20,16.40
2018,07,23,09,21,16.40
2018,07,23,09,22,16.50
2018,07,23,09,23,16.50
2018,07,23,09,24,16.60
2018,07,23,09,25,16.60
2018,07,23,09,26,16.70
2018,07,23,09,27,16.70
2018,07,23,09,28,16.80
2018,07,23,09,29,16.90
2018,07,23,09,30,16.90
2018,07,23,09,31,17.00
2018,07,23,09,32,17.10
2018,07,23,09,33,17.10
2018,07,23,09,34,17.20
2018,07,23,09,35,17.30
2018,07,23,09,36,17.30
2018,07,23,09,37,17.40
2018,07,23,09,38,17.40
2018,07,23,09,39,17.40
2018,07,23,09,40,17.50
2018,07,23,09,41,17.60
2018,07,23,09,42,17.60
2018,07,23,09,43,17.60
2018,07,23,09,44,17.70
2018,07,23,09,45,17.70
2018,07,23,09,46,17.80
2018,07,23,09,47,17.90
2018,07,23,09,48,17.90
2018,07,23,09,49,17.90
2018,07,23,09,50,18.00
2018,07,23,09,51,18.10
2018,07,23,09,52,18.10
2018,07,23,09,53,18.20
2018,07,23,09,54,18.20
2018,07,23,09,55,18.20
2018,07,23,09,56,18.20
2018,07,23,09,57,18.20
2018,07,23,09,58,18.20
2018,07,23,09,59,18.30
2018,07,23,10,00,18.30
2018,07,23,10,01,18.40
2018,07,23,10,02,18.40
2018,07,23,10,03,18.40
2018,07,23,10,04,18.50
2018,07,23,10,05,18.50
2018,07,23,10,06,18.60
2018,07,23,10,07,18.60
2018,07,23,10,08,18.60
2018,07,23,10,09,18.70
2018,07,23,10,10,18.80
2018,07,23,10,11,18.80
2018,07,23,10,12,18.80
2018,07,23,10,13,18.90
2018,07,23,10,14,18.90
2018,07,23,10,15,19.00
2018,07,23,10,16,19.00
2018,07,23,10,17,19.10
2018,07,23,10,18,19.20
2018,07,23,10,19,19.20
2018,07,23,10,20,19.30
2018,07,23,10,21,19.40
2018,07,23,10,22,19.40
2018,07,23,10,23,19.50
2018,07,23,10,24,19.60
2018,07,23,10,25,19.60
2018,07,23,10,26,19.70
2018,07,23,10,27,19.80
2018,07,23,10,28,19.90
2018,07,23,10,29,20.10
2018,07,23,10,30,20.20
2018,07,23,10,31,20.20
2018,07,23,10,32,20.30
2018,07,23,10,33,20.30
2018,07,23,10,34,20.40
2018,07,23,10,35,20.40
2018,07,23,10,36,20.40
2018,07,23,10,37,20.50
2018,07,23,10,38,20.60
2018,07,23,10,39,20.60
2018,07,23,10,40,20.70
2018,07,23,10,41,20.70
2018,07,23,10,42,20.80
2018,07,23,10,43,20.80
2018,07,23,10,44,20.90
2018,07,23,10,45,21.00
2018,07,23,10,46,21.00
2018,07,23,10,47,21.10
2018,07,23,10,48,21.20
2018,07,23,10,49,21.30
2018,07,23,10,50,21.30
2018,07,23,10,51,21.40
2018,07,23,10,52,21.40
2018,07,23,10,53,21.40
2018,07,23,10,54,21.50
2018,07,23,10,55,21.50
2018,07,23,10,56,21.50
2018,07,23,10,57,21.60
2018,07,23,10,58,21.60
2018,07,23,10,59,21.60
2018,07,23,11,00,21.70
2018,07,23,11,01,21.70
2018,07,23,11,02,21.70
2018,07,23,11,03,21.80
2018,07,23,11,04,21.80
2018,07,23,11,05,21.90
2018,07,23,11,06,21.90
2018,07,23,11,07,22.00
2018,07,23,11,08,22.00
2018,07,23,11,09,22.10
2018,07,23,11,10,22.20
2018,07,23,11,11,22.30
2018,07,23,11,12,22.30
2018,07,23,11,13,22.40
2018,07,23,11,14,22.40
2018,07,23,11,15,22.50
2018,07,23,11,16,22.60
2018,07,23,11,17,22.60
2018,07,23,11,18,22.70
2018,07,23,11,19,22.70
2018,07,23,11,20,22.70
2018,07,23,11,21,22.80
2018,07,23,11,22,22.90
2018,07,23,11,23,22.90
2018,07,23,11,24,23.00
2018,07,23,11,25,23.10
2018,07,23,11,26,23.10
2018,07,23,11,27,23.20
2018,07,23,11,28,23.30
2018,07,23,11,29,23.40
2018,07,23,11,30,23.50
2018,07,23,11,31,23.50
2018,07,23,11,32,23.60
2018,07,23,11,33,23.70
2018,07,23,11,34,23.80
2018,07,23,11,35,23.90
2018,07,23,11,36,24.00
2018,07,23,11,37,24.10
2018,07,23,11,38,24.10
2018,07,23,11,39,24.10
2018,07,23,11,40,24.20
2018,07,23,11,41,24.20
2018,07,23,11,42,24.20
2018,07,23,11,43,24.20
2018,07,23,11,44,24.30
2018,07,23,11,45,24.40
2018,07,23,11,46,24.50
2018,07,23,11,47,24.50
2018,07,23,11,48,24.60
2018,07,23,11,49,24.70
2018,07,23,11,50,24.80
2018,07,23,11,51,24.90
2018,07,23,11,52,25.00
2018,07,23,11,53,25.10
2018,07,23,11,54,25.20
2018,07,23,11,55,25.20
2018,07,23,11,56,25.30
2018,07,23,11,57,25.30
2018,07,23,11,58,25.40
2018,07,23,11,59,25.40
2018,07,23,12,00,25.50
2018,07,23,12,01,25.60
2018,07,23,12,02,25.70
2018,07,23,12,03,25.70
2018,07,23,12,04,25.80
2018,07,23,12,05,25.90
2018,07,23,12,06,26.00
2018,07,23,12,07,26.10
2018,07,23,12,08,26.20
2018,07,23,12,09,26.20
2018,07,23,12,10,26.20
2018,07,23,12,11,26.20
2018,07,23,12,12,26.20
2018,07,23,12,13,26.30
2018,07,23,12,14,26.30
2018,07,23,12,15,26.30
2018,07,23,12,16,26.30
2018,07,23,12,17,26.30
2018,07,23,12,18,26.40
2018,07,23,12,19,26.40
2018,07,23,12,20,26.50
2018,07,23,12,21,26.60
2018,07,23,12,22,26.60
2018,07,23,12,23,26.60
2018,07,23,12,24,26.70
2018,07,23,12,25,26.70
2018,07,23,12,26,26.60
2018,07,23,12,27,26.60
2018,07,23,12,28,26.60
2018,07,23,12,29,26.60
2018,07,23,12,30,26.60
2018,07,23,12,31,26.60
2018,07,23,12,32,26.60
2018,07,23,12,33,26.60
2018,07,23,12,34,26.60
2018,07,23,12,35,26.60
2018,07,23,12,36,26.60
2018,07,23,12,37,26.60
2018,07,23,12,38,26.60
2018,07,23,12,39,26.70
2018,07,23,12,40,26.70
2018,07,23,12,41,26.70
2018,07,23,12,42,26.70
2018,07,23,12,43,26.70
2018,07,23,12,44,26.70
2018,07,23,12,45,26.70
2018,07,23,12,46,26.70
2018,07,23,12,47,26.70
2018,07,23,12,48,26.80
2018,07,23,12,49,26.80
2018,07,23,12,50,26.80
2018,07,23,12,51,26.80
2018,07,23,12,52,26.80
2018,07,23,12,53,26.80
2018,07,23,12,54,26.90
2018,07,23,12,55,26.90
2018,07,23,12,56,26.90
2018,07,23,12,57,26.90
2018,07,23,12,58,27.00
2018,07,23,12,59,27.00
2018,07,23,13,00,27.00
2018,07,23,13,01,27.10
2018,07,23,13,02,27.10
2018,07,23,13,03,27.20
2018,07,23,13,04,27.20
2018,07,23,13,05,27.20
2018,07,23,13,06,27.20
2018,07,23,13,07,27.30
2018,07,23,13,08,27.30
2018,07,23,13,09,27.30
2018,07,23,13,10,27.30
2018,07,23,13,11,27.40
2018,07,23,13,12,27.40
2018,07,23,13,13,27.40
2018,07,23,13,14,27.50
2018,07,23,13,15,27.50
2018,07,23,13,16,27.50
2018,07,23,13,17,27.50
2018,07,23,13,18,27.50
2018,07,23,13,19,27.50
2018,07,23,13,20,27.50
2018,07,23,13,21,27.60
2018,07,23,13,22,27.60
2018,07,23,13,23,27.60
2018,07,23,13,24,27.60
2018,07,23,13,25,27.60
2018,07,23,13,26,27.70
2018,07,23,13,27,27.70
2018,07,23,13,28,27.70
2018,07,23,13,29,27.70
2018,07,23,13,30,27.80
2018,07,23,13,31,27.80
2018,07,23,13,32,27.80
2018,07,23,13,33,27.80
2018,07,23,13,34,27.80
2018,07,23,13,35,27.80
2018,07,23,13,36,27.80
2018,07,23,13,37,27.80
2018,07,23,13,38,27.80
2018,07,23,13,39,27.80
2018,07,23,13,40,27.90
2018,07,23,13,41,27.90
2018,07,23,13,42,28.00
2018,07,23,13,43,28.00
2018,07,23,13,44,28.10
2018,07,23,13,45,28.20
2018,07,23,13,46,28.20
2018,07,23,13,47,28.20
2018,07,23,13,48,28.20
2018,07,23,13,49,28.20
2018,07,23,13,50,28.20
2018,07,23,13,51,28.20
2018,07,23,13,52,28.20
2018,07,23,13,53,28.20
2018,07,23,13,54,28.20
2018,07,23,13,55,28.20
2018,07,23,13,56,28.20
2018,07,23,13,57,28.20
2018,07,23,13,58,28.20
2018,07,23,13,59,28.20
2018,07,23,14,00,28.20
2018,07,23,14,01,28.20
2018,07,23,14,02,28.20
2018,07,23,14,03,28.20
2018,07,23,14,04,28.30
2018,07,23,14,05,28.30
2018,07,23,14,06,28.30
2018,07,23,14,07,28.40
2018,07,23,14,08,28.30
2018,07,23,14,09,28.30
2018,07,23,14,10,28.30
2018,07,23,14,11,28.40
2018,07,23,14,12,28.40
2018,07,23,14,13,28.40
2018,07,23,14,14,28.50
2018,07,23,14,15,28.50
2018,07,23,14,16,28.60
2018,07,23,14,17,28.60
2018,07,23,14,18,28.70
2018,07,23,14,19,28.70
2018,07,23,14,20,28.70
2018,07,23,14,21,28.70
2018,07,23,14,22,28.80
2018,07,23,14,23,28.80
2018,07,23,14,24,28.80
2018,07,23,14,25,28.90
2018,07,23,14,26,28.90
2018,07,23,14,27,29.00
2018,07,23,14,28,29.00
2018,07,23,14,29,29.10
2018,07,23,14,30,29.10
2018,07,23,14,31,29.00
2018,07,23,14,32,29.00
2018,07,23,14,33,29.00
2018,07,23,14,34,29.00
2018,07,23,14,35,29.00
2018,07,23,14,36,29.10
2018,07,23,14,37,29.10
2018,07,23,14,38,29.10
2018,07,23,14,39,29.10
2018,07,23,14,40,29.10
2018,07,23,14,41,29.10
2018,07,23,14,42,29.10
2018,07,23,14,43,29.20
2018,07,23,14,44,29.20
2018,07,23,14,45,29.20
2018,07,23,14,46,29.20
2018,07,23,14,47,29.20
2018,07,23,14,48,29.20
2018,07,23,14,49,29.30
2018,07,23,14,50,29.30
2018,07,23,14,51,29.40
2018,07,23,14,52,29.40
2018,07,23,14,53,29.40
2018,07,23,14,54,29.50
2018,07,23,14,55,29.50
2018,07,23,14,56,29.60
2018,07,23,14,57,29.60
2018,07,23,14,58,29.70
2018,07,23,14,59,29.70
2018,07,23,15,00,29.80
2018,07,23,15,01,29.90
2018,07,23,15,02,29.90
2018,07,23,15,03,29.90
2018,07,23,15,04,29.90
2018,07,23,15,05,29.80
2018,07,23,15,06,29.80
2018,07,23,15,07,29.80
2018,07,23,15,08,29.80
2018,07,23,15,09,29.80
2018,07,23,15,10,29.80
2018,07,23,15,11,29.80
2018,07,23,15,12,29.80
2018,07,23,15,13,29.80
2018,07,23,15,14,29.80
2018,07,23,15,15,29.80
2018,07,23,15,16,29.80
2018,07,23,15,17,29.90
2018,07,23,15,18,29.90
2018,07,23,15,19,29.90
2018,07,23,15,20,30.00
2018,07,23,15,21,30.00
2018,07,23,15,22,30.00
2018,07,23,15,23,30.10
2018,07,23,15,24,30.10
2018,07,23,15,25,30.10
2018,07,23,15,26,30.20
2018,07,23,15,27,30.20
2018,07,23,15,28,30.30
2018,07,23,15,29,30.30
2018,07,23,15,30,30.30
2018,07,23,15,31,30.40
2018,07,23,15,32,30.40
2018,07,23,15,33,30.40
2018,07,23,15,34,30.50
2018,07,23,15,35,30.50
2018,07,23,15,36,30.50
2018,07,23,15,37,30.40
2018,07,23,15,38,30.40
2018,07,23,15,39,30.30
2018,07,23,15,40,30.30
2018,07,23,15,41,30.40
2018,07,23,15,42,30.40
2018,07,23,15,43,30.50
2018,07,23,15,44,30.50
2018,07,23,15,45,30.50
2018,07,23,15,46,30.60
2018,07,23,15,47,30.60
2018,07,23,15,48,30.60
2018,07,23,15,49,30.70
2018,07,23,15,50,30.70
2018,07,23,15,51,30.70
2018,07,23,15,52,30.70
2018,07,23,15,53,30.70
2018,07,23,15,54,30.60
2018,07,23,15,55,30.60
2018,07,23,15,56,30.60
2018,07,23,15,57,30.60
2018,07,23,15,58,30.60
2018,07,23,15,59,30.60
2018,07,23,16,00,30.60
2018,07,23,16,01,30.70
2018,07,23,16,02,30.70
2018,07,23,16,03,30.70
2018,07,23,16,04,30.70
2018,07,23,16,05,30.70
2018,07,23,16,06,30.70
2018,07,23,16,07,30.60
2018,07,23,16,08,30.60
2018,07,23,16,09,30.60
2018,07,23,16,10,30.60
2018,07,23,16,11,30.50
2018,07,23,16,12,30.60
2018,07,23,16,13,30.60
2018,07,23,16,14,30.70
2018,07,23,16,15,30.70
2018,07,23,16,16,30.80
2018,07,23,16,17,30.80
2018,07,23,16,18,30.80
2018,07,23,16,19,30.80
2018,07,23,16,20,30.90
2018,07,23,16,21,30.90
2018,07,23,16,22,30.90
2018,07,23,16,23,31.00
2018,07,23,16,24,31.00
2018,07,23,16,25,31.10
2018,07,23,16,26,31.10
2018,07,23,16,27,31.10
2018,07,23,16,28,31.10
2018,07,23,16,29,31.10
2018,07,23,16,30,31.10
2018,07,23,16,31,31.20
2018,07,23,16,32,31.20
2018,07,23,16,33,31.20
2018,07,23,16,34,31.10
2018,07,23,16,35,31.10
2018,07,23,16,36,31.20
2018,07,23,16,37,31.20
2018,07,23,16,38,31.20
2018,07,23,16,39,31.30
2018,07,23,16,40,31.30
2018,07,23,16,41,31.30
2018,07,23,16,42,31.40
2018,07,23,16,43,31.40
2018,07,23,16,44,31.40
2018,07,23,16,45,31.40
2018,07,23,16,46,31.40
2018,07,23,16,47,31.50
2018,07,23,16,48,31.50
2018,07,23,16,49,31.50
2018,07,23,16,50,31.60
2018,07,23,16,51,31.60
2018,07,23,16,52,31.60
2018,07,23,16,53,31.60
2018,07,23,16,54,31.60
2018,07,23,16,55,31.70
2018,07,23,16,56,31.70
2018,07,23,16,57,31.60
2018,07,23,16,58,31.60
2018,07,23,16,59,31.60
2018,07,23,17,00,31.60
2018,07,23,17,01,31.60
2018,07,23,17,02,31.60
2018,07,23,17,03,31.60
2018,07,23,17,04,31.60
2018,07,23,17,05,31.60
2018,07,23,17,06,31.70
2018,07,23,17,07,31.70
2018,07,23,17,08,31.70
2018,07,23,17,09,31.70
2018,07,23,17,10,31.70
2018,07,23,17,11,31.80
2018,07,23,17,12,31.80
2018,07,23,17,13,31.80
2018,07,23,17,14,31.80
2018,07,23,17,15,31.80
2018,07,23,17,16,31.80
2018,07,23,17,17,31.80
2018,07,23,17,18,31.80
2018,07,23,17,19,31.90